Regional Weather Roundup
Issued by NWS

Home | Current Version | Previous Version | Text Only | Print | Product List | Glossary Off
Versions: 1 2 3 4 5 6 7 8 9 10 11 12 13 14 15 16 17 18 19 20 21 22 23 24 25 26 27 28 29 30 31 32 33 34 35 36 37 38 39 40 41 42 43 44 45 46 47 48 49 50

000
ASUS43 KFSD 202202
RWRSD

WEATHER ROUNDUP FOR SOUTH DAKOTA
NATIONAL WEATHER SERVICE SIOUX FALLS SD
500 PM CDT SAT SEP 20 2014

NOTE: "FAIR" INDICATES FEW OR NO CLOUDS BELOW 12,000 FEET WITH NO
SIGNIFICANT WEATHER AND/OR OBSTRUCTIONS TO VISIBILITY.


SDZ001>005-009-010-012>017-202300-
NORTHWEST AND NORTH CENTRAL SOUTH DAKOTA

CITY           SKY/WX    TMP DP  RH WIND       PRES   REMARKS
FAITH            N/A     75  34  22 NW31G40   30.09S
MOBRIDGE       SUNNY     74  42  31 NW15G32   29.99R
$$

SDZ012>016-024>037-041>051-057-063-072>074-202300-
SOUTHWEST AND SOUTH CENTRAL SOUTH DAKOTA

CITY           SKY/WX    TMP DP  RH WIND       PRES   REMARKS
RAPID CTY ARPT SUNNY     76  40  27 N26G37    30.16R
PIERRE         SUNNY     78  42  27 NW30G38   30.00R
CUSTER         SUNNY     70  33  25 VRB7G17   30.26S
ELLSWORTH AFB  SUNNY     75  39  27 N25G32    30.16R
PHILIP         SUNNY     78  40  25 NW23G32   30.08R
PINE RIDGE     SUNNY     78  40  25 N18G29    30.14R
WINNER         FAIR      81  44  27 NW32G44   30.01R
$$

SDZ004>011-016>023-039-040-202300-
NORTHEAST SOUTH DAKOTA

CITY           SKY/WX    TMP DP  RH WIND       PRES   REMARKS
ABERDEEN       MOSUNNY   72  46  39 N25G37    29.94R
WATERTOWN      MOSUNNY   70  51  51 N32G44    29.89R
SISSETON         N/A     68  53  58 N21G36    29.86R
$$

SDZ017-020-022-023-036>040-048>070-202300-
SOUTHEAST SOUTH DAKOTA

CITY           SKY/WX    TMP DP  RH WIND       PRES   REMARKS
SIOUX FALLS    MOSUNNY   81  48  31 NW23G31   29.85S
HURON          SUNNY     77  47  34 NW29G41   29.92R
CHAMBERLAIN    SUNNY     79  44  29 NW23G37   29.98R
MITCHELL       SUNNY     82  47  29 NW28G38   29.91R
YANKTON        MOSUNNY   82  52  34 NW20G31   29.89S
$$

ABBREVIATIONS USED IN REMARKS
   TC - TEMPERATURE IN CELSIUS
  WCI - WIND CHILL INDEX
   HX - HEAT INDEX
  VSB - VISIBILITY




USA.gov is the U.S. government's official web portal to all federal, state and local government web resources and services.